Flag for U.S.A. Weather past 2 weeks in Tucson, Arizona, U.S.A.

Now
97 °F

Sunny.


Feels Like: 95 °F
Forecast: 75 / 100 °F
Wind: 5 mph from Southwest

Location: Davis-Monthan Air Force Base

Current Time: Jul 29, 2014 at 2:36:14 PM

Latest Report: Jul 29, 2014 at 1:58 PM


Visibility: 10 mi

Pressure: 29.88 "Hg

Humidity: 24%

Dew point: 54 °F

Location of TucsonLocation

Historic Weather in Tucson — Graph

°F

Tucson temperature yesterday

Maximum temperature yesterday: 93 °F (at 4:58 PM)
Minimum temperature yesterday: 74 °F (at 12:58 AM)
Average temperature yesterday: 83 °F

Past Weeks' High & Low Weather Summary

 TemperatureHumidityPressure
High106 °F (Jul 24, 3:02 PM)87% (Jul 15, 10:58 AM)30.14 "Hg (Jul 15, 10:58 AM)
Low71 °F (Jul 15, 9:58 AM)11% (Jul 24, 3:58 PM)29.69 "Hg (Jul 24, 4:58 PM)
Average87 °F39%29.88 "Hg
* Reported Jul 14 12:58 PM — Jul 29 12:58 PM, Tucson, Weather by CustomWeather, © 2014

Note: Actual official high and low records may vary slightly from our data, if they occured in-between our weather recording intervals... More about our weather records

Advertising

Tucson weather history for previous 24 hours

 ConditionsComfort  
Time TempWeatherWind HumidityBarometerVisibility
12:58 PM
Jul 29
95 °FPassing clouds.6 mph26%29.90 "Hg10 mi
11:58 AM93 °FSunny.6 mph31%29.93 "Hg10 mi
10:58 AM92 °FSunny.3 mph33%29.96 "Hg10 mi
9:58 AM89 °FSunny.5 mph37%29.97 "Hg10 mi
8:58 AM87 °FSunny.1 mph43%29.96 "Hg10 mi
7:58 AM83 °FSunny.3 mph51%29.96 "Hg10 mi
6:58 AM79 °FSunny.6 mph61%29.95 "Hg10 mi
5:58 AM76 °FSunny.2 mph65%29.94 "Hg10 mi
4:58 AM76 °FClear.2 mph68%29.94 "Hg10 mi
3:58 AM77 °FClear.6 mph68%29.93 "Hg10 mi
2:58 AM78 °FClear.7 mph63%30.06 "Hg10 mi
1:58 AM79 °FClear.6 mph61%29.93 "Hg10 mi
12:58 AM80 °FClear.6 mph64%29.94 "Hg10 mi
11:58 PM
Jul 28
81 °FClear.8 mph57%30.08 "Hg10 mi
10:58 PM81 °FClear.6 mph61%30.08 "Hg10 mi
9:58 PM83 °FClear.5 mph57%30.08 "Hg10 mi
8:58 PM85 °FClear.6 mph52%29.93 "Hg10 mi
7:58 PM87 °FClear.5 mph46%29.91 "Hg10 mi
6:58 PM91 °FSunny.5 mph37%29.90 "Hg10 mi
5:58 PM92 °FSunny.2 mph36%29.91 "Hg10 mi
4:58 PM93 °FSunny.7 mph33%29.91 "Hg10 mi
3:58 PM91 °FSunny.1 mph34%29.95 "Hg10 mi
2:58 PM90 °FSunny.5 mph35%29.97 "Hg10 mi
Weather by CustomWeather, © 2014

See weather overviewHow to use our weather pages